This is the latest recevied weather packets stored in our database for station/object N0HOT. If no packets are shown the sender has not sent any weather packets the latest 1 day(s).
| Time | Temp. | Humidity | Pressure | Rain* | Wind** | Luminosity | Snow |
|---|---|---|---|---|---|---|---|
| 1836274784 | 17.78° C | 88% | 1015 hPa | 0 mm | 0 m/s | 0 W/m² | - |
| 1836274482 | 17.78° C | 88% | 1015 hPa | 0 mm | 0 m/s | 0 W/m² | - |
| 1836274336 | 17.78° C | 88% | 1015 hPa | 0 mm | 0 m/s | 0 W/m² | - |
| 1836274181 | 17.78° C | 88% | 1015 hPa | 0 mm | 0 m/s | 0 W/m² | - |
| 1836273880 | 17.78° C | 88% | 1015.3 hPa | 0 mm | 0 m/s | 0 W/m² | - |
| 1778031841 | 9.44° C | 36% | 1011.5 hPa | 0 mm | 0 m/s | 0 W/m² | - |
| 1778031538 | 9.44° C | 35% | 1011.1 hPa | 0 mm | 0 m/s | 0 W/m² | - |
| 1778031236 | 9.44° C | 35% | 1011.5 hPa | 0 mm | 0 m/s | 0 W/m² | - |
| 1778030932 | 9.44° C | 36% | 1011.1 hPa | 0 mm | 0.45 m/s, 251° | 0 W/m² | - |
| 1778030629 | 9.44° C | 35% | 1011.1 hPa | 0 mm | 0 m/s | 0 W/m² | - |
| 1778030326 | 9.44° C | 35% | 1011.1 hPa | 0 mm | 0 m/s | 0 W/m² | - |
| 1778030023 | 10° C | 34% | 1011.1 hPa | 0 mm | 0 m/s | 2 W/m² | - |
| 1778029720 | 10° C | 34% | 1011.1 hPa | 0 mm | 0.45 m/s, 337° | 3 W/m² | - |
| 1778029418 | 10° C | 34% | 1010.8 hPa | 0 mm | 0 m/s | 5 W/m² | - |
| 1778029115 | 10° C | 34% | 1011.1 hPa | 0 mm | 0 m/s | 9 W/m² | - |
| 1778028812 | 10.56° C | 33% | 1010.8 hPa | 0 mm | 0 m/s | 12 W/m² | - |
| 1778028508 | 10.56° C | 32% | 1010.8 hPa | 0 mm | 1.34 m/s, 3° | 17 W/m² | - |
| 1778028205 | 10.56° C | 32% | 1010.8 hPa | 0 mm | 0 m/s | 26 W/m² | - |
| 1778027901 | 10.56° C | 33% | 1010.8 hPa | 0 mm | 0 m/s | 31 W/m² | - |
| 1778027598 | 10.56° C | 32% | 1010.5 hPa | 0 mm | 0 m/s | 39 W/m² | - |
| 1778027294 | 10.56° C | 31% | 1010.8 hPa | 0 mm | 0 m/s | 39 W/m² | - |
| 1778026991 | 10.56° C | 31% | 1010.5 hPa | 0 mm | 0.45 m/s, 18° | 49 W/m² | - |
| 1778026686 | 10.56° C | 31% | 1010.5 hPa | 0 mm | 1.34 m/s, 296° | 35 W/m² | - |
| 1778026384 | 10.56° C | 31% | 1010.5 hPa | 0 mm | 0.45 m/s, 64° | 45 W/m² | - |
| 1778026081 | 10.56° C | 31% | 1010.5 hPa | 0 mm | 0.89 m/s, 6° | 57 W/m² | - |
* Rain latest hour (hover to see other rain measurements)
** Current wind speed in m/s (hover to see current wind gust speed)